TIANZHOU-5 (54237 NORAD) Tracking and Keplerian Element Data

This shows tracking and keplerian element data for the satellite.

Feedback or suggestion? Click here.




ElementValue
Catalog54237
NameTIANZHOU-5
Epoch Orbit9762
Epoch Day13.39264206
Epoch Year2023
RAAN19.4523
Inclination41.4758
Eccentricity0.0007544
Argument of Perigee314.4768
Mean Anonmoly183.4246
Mean Motion15.6024187
Decay Rate-0.000205
L11 54237U 22152A 23013.39264206 -.00020500 00000+0 -24036-3 0 9990
L22 54237 41.4758 19.4523 0007544 314.4768 183.4246 15.60241870 97625



Live tracking and technical data element details for TIANZHOU-5 (NORAD 54237). TIANZHOU-5 can be tracked NOW for your location showing map with azimuth and elevation plus other details from your city location.







IsCatalogInMostPopularTable: catalog: 54237, numindb: 18
Update: records affected: 1



GetName: 54237 TIANZHOU-5

Hit Count: updated at: Fri, 27 Jan 2023 21:48:39 GMT